Regional Weather Roundup
Issued by NWS

Home | Current Version | Previous Version | Text Only | Print | Product List | Glossary On
Versions: 1 2 3 4 5 6 7 8 9 10 11 12 13 14 15 16 17 18 19 20 21 22 23 24 25 26 27 28 29 30 31 32 33 34 35 36 37 38 39 40 41 42 43 44 45 46 47 48 49 50
000
ASUS43 KFSD 302202
RWRSD

WEATHER ROUNDUP FOR SOUTH DAKOTA
NATIONAL WEATHER SERVICE SIOUX FALLS SD
500 PM CDT SAT AUG 30 2014

NOTE: "FAIR" INDICATES FEW OR NO CLOUDS BELOW 12,000 FEET WITH NO
SIGNIFICANT WEATHER AND/OR OBSTRUCTIONS TO VISIBILITY.


SDZ001>005-009-010-012>017-302300-
NORTHWEST AND NORTH CENTRAL SOUTH DAKOTA

CITY           SKY/WX    TMP DP  RH WIND       PRES   REMARKS
BUFFALO          N/A     82  59  45 E13       29.64F
FAITH            N/A     78  61  55 SE23G31   29.71F
MOBRIDGE       SUNNY     76  59  55 SE17      29.75F
$$

SDZ012>016-024>037-041>051-057-063-072>074-302300-
SOUTHWEST AND SOUTH CENTRAL SOUTH DAKOTA

CITY           SKY/WX    TMP DP  RH WIND       PRES   REMARKS
RAPID CTY ARPT SUNNY     87  52  29 S17G26    29.69F
PIERRE         SUNNY     79  60  52 E16       29.75F
CUSTER         MOSUNNY   79  48  33 S12G17    29.85F
ELLSWORTH AFB  SUNNY     88  54  30 S22G28    29.67F
PHILIP         SUNNY     88  60  38 SE16G23   29.69F
PINE RIDGE     SUNNY     89  54  30 S17G25    29.74F
WINNER         FAIR      81  61  50 SE16G25   29.79F
$$

SDZ004>011-016>023-039-040-302300-
NORTHEAST SOUTH DAKOTA

CITY           SKY/WX    TMP DP  RH WIND       PRES   REMARKS
ABERDEEN       SUNNY     70  58  65 SE5       29.83F
WATERTOWN      MOSUNNY   69  57  65 S7        29.86F
SISSETON         N/A     70  61  73 E6        29.83F
$$

SDZ017-020-022-023-036>040-048>070-302300-
SOUTHEAST SOUTH DAKOTA

CITY           SKY/WX    TMP DP  RH WIND       PRES   REMARKS
SIOUX FALLS    MOSUNNY   70  60  70 SW5       29.88F
HURON          SUNNY     71  58  63 SE9       29.83F
CHAMBERLAIN    SUNNY     75  62  64 SE14      29.81F
MITCHELL       SUNNY     72  61  68 SE10      29.85F
YANKTON        SUNNY     72  61  68 SE6       29.87F
$$

ABBREVIATIONS USED IN REMARKS
   TC - TEMPERATURE IN CELSIUS
  WCI - WIND CHILL INDEX
   HX - HEAT INDEX
  VSB - VISIBILITY



USA.gov is the U.S. government's official web portal to all federal, state and local government web resources and services.